| time (UTC) | temp F | wind direction | speed MPH | gust MPH | rain 1hr in | rain 24hr in | rain mn in | humidity % | barometer mb |
| 20260831123104 | 62 | 131 | 3.0 | 10.0 | 0.00 | 0.00 | 0.00 | 84 | 1015.7 |
| 20260831122604 | 61 | 142 | 4.0 | 8.0 | 0.00 | 0.00 | 0.00 | 84 | 1015.7 |
| 20260831122104 | 61 | 151 | 4.0 | 8.0 | 0.00 | 0.00 | 0.00 | 84 | 1015.7 |
| 20260831121104 | 61 | 150 | 6.0 | 8.0 | 0.00 | 0.00 | 0.00 | 83 | 1015.6 |
| 20260831120105 | 61 | 138 | 5.0 | 8.0 | 0.00 | 0.00 | 0.00 | 84 | 1015.6 |
| 20260831115605 | 61 | 137 | 4.0 | 9.0 | 0.00 | 0.00 | 0.00 | 84 | 1015.6 |
| 20260831115104 | 62 | 4 | 4.0 | 7.0 | 0.00 | 0.00 | 0.00 | 83 | 1015.6 |
| 20260831114606 | 62 | 167 | 3.0 | 5.0 | 0.00 | 0.00 | 0.00 | 83 | 1015.6 |
| 20260831114104 | 61 | 184 | 3.0 | 5.0 | 0.00 | 0.00 | 0.00 | 83 | 1015.7 |
| 20260831113604 | 61 | 127 | 3.0 | 8.0 | 0.00 | 0.00 | 0.00 | 84 | 1015.6 |
| 20260831113104 | 62 | 139 | 5.0 | 10.0 | 0.00 | 0.00 | 0.00 | 82 | 1015.6 |
| 20260831112104 | 62 | 134 | 3.0 | 7.0 | 0.00 | 0.00 | 0.00 | 83 | 1015.6 |
| 20260831111604 | 63 | 136 | 5.0 | 8.0 | 0.00 | 0.00 | 0.00 | 83 | 1015.5 |
| 20260831111104 | 63 | 131 | 5.0 | 8.0 | 0.00 | 0.00 | 0.00 | 81 | 1015.4 |
| 20260831110104 | 63 | 120 | 5.0 | 10.0 | 0.00 | 0.00 | 0.00 | 81 | 1015.4 |
| 20260831105604 | 63 | 143 | 4.0 | 9.0 | 0.00 | 0.00 | 0.00 | 81 | 1015.4 |
| 20260831105104 | 63 | 136 | 5.0 | 7.0 | 0.00 | 0.00 | 0.00 | 79 | 1015.4 |
| 20260831104604 | 64 | 143 | 3.0 | 7.0 | 0.00 | 0.00 | 0.00 | 77 | 1015.4 |
| 20260831104104 | 65 | 150 | 3.0 | 7.0 | 0.00 | 0.00 | 0.00 | 78 | 1015.4 |
| 20260831103604 | 65 | 6 | 4.0 | 7.0 | 0.00 | 0.00 | 0.00 | 77 | 1015.4 |
| 20260831103104 | 65 | 128 | 4.0 | 10.0 | 0.00 | 0.00 | 0.00 | 76 | 1015.4 |
| 20260831102606 | 65 | 106 | 2.0 | 7.0 | 0.00 | 0.00 | 0.00 | 75 | 1015.4 |
| 20260831102106 | 65 | 131 | 4.0 | 7.0 | 0.00 | 0.00 | 0.00 | 75 | 1015.5 |
| 20260831101105 | 65 | 109 | 3.0 | 7.0 | 0.00 | 0.00 | 0.00 | 77 | 1015.5 |
| 20260831100106 | 64 | 135 | 3.0 | 8.0 | 0.00 | 0.00 | 0.00 | 76 | 1015.6 |
| 20260831095106 | 64 | 130 | 2.0 | 8.0 | 0.00 | 0.00 | 0.00 | 78 | 1015.6 |
| 20260831094606 | 64 | 115 | 5.0 | 9.0 | 0.00 | 0.00 | 0.00 | 76 | 1015.6 |
| 20260831094106 | 64 | 103 | 3.0 | 9.0 | 0.00 | 0.00 | 0.00 | 77 | 1015.7 |
| 20260831093606 | 65 | 127 | 3.0 | 7.0 | 0.00 | 0.00 | 0.00 | 79 | 1015.7 |
| 20260831093106 | 65 | 130 | 3.0 | 9.0 | 0.00 | 0.00 | 0.00 | 76 | 1015.7 |
| 20260831092605 | 65 | 155 | 3.0 | 6.0 | 0.00 | 0.00 | 0.00 | 74 | 1015.7 |
| 20260831092106 | 65 | 137 | 2.0 | 8.0 | 0.00 | 0.00 | 0.00 | 78 | 1015.7 |
| 20260831091606 | 65 | 146 | 3.0 | 7.0 | 0.00 | 0.00 | 0.00 | 79 | 1015.7 |
| 20260831091106 | 65 | 129 | 3.0 | 8.0 | 0.00 | 0.00 | 0.00 | 78 | 1015.7 |
| 20260831090606 | 64 | 153 | 2.0 | 5.0 | 0.00 | 0.00 | 0.00 | 80 | 1015.7 |
| 20260831090106 | 63 | 136 | 3.0 | 7.0 | 0.00 | 0.00 | 0.00 | 79 | 1015.7 |
| 20260831085605 | 63 | 149 | 2.0 | 3.0 | 0.00 | 0.00 | 0.00 | 81 | 1015.8 |
| 20260831085106 | 64 | 148 | 4.0 | 6.0 | 0.00 | 0.00 | 0.00 | 77 | 1015.6 |
| 20260831084606 | 65 | 147 | 3.0 | 6.0 | 0.00 | 0.00 | 0.00 | 75 | 1015.7 |
| 20260831084106 | 66 | 152 | 1.0 | 3.0 | 0.00 | 0.00 | 0.00 | 75 | 1015.6 |
| 20260831083606 | 67 | 146 | 2.0 | 3.0 | 0.00 | 0.00 | 0.00 | 76 | 1015.6 |
| 20260831083106 | 66 | 130 | 2.0 | 3.0 | 0.00 | 0.00 | 0.00 | 78 | 1015.6 |
| 20260831082606 | 65 | 130 | 3.0 | 6.0 | 0.00 | 0.00 | 0.00 | 77 | 1015.5 |
| 20260831082106 | 65 | 163 | 3.0 | 6.0 | 0.00 | 0.00 | 0.00 | 77 | 1015.5 |
| 20260831081605 | 65 | 166 | 2.0 | 5.0 | 0.00 | 0.00 | 0.00 | 76 | 1015.5 |
| 20260831081105 | 65 | 161 | 1.0 | 6.0 | 0.00 | 0.00 | 0.00 | 76 | 1015.5 |
| 20260831080605 | 65 | 159 | 2.0 | 5.0 | 0.00 | 0.00 | 0.00 | 75 | 1015.5 |
| 20260831080106 | 65 | 163 | 1.0 | 3.0 | 0.00 | 0.00 | 0.00 | 78 | 1015.5 |
| 20260831075105 | 63 | 154 | 3.0 | 6.0 | 0.00 | 0.00 | 0.00 | 79 | 1015.5 |
| 20260831074605 | 63 | 151 | 3.0 | 5.0 | 0.00 | 0.00 | 0.00 | 77 | 1015.5 |
| 20260831074106 | 63 | 2 | 3.0 | 7.0 | 0.00 | 0.00 | 0.00 | 78 | 1015.4 |
| 20260831073105 | 63 | 18 | 2.0 | 5.0 | 0.00 | 0.00 | 0.00 | 76 | 1015.4 |
| 20260831072606 | 64 | 169 | 2.0 | 6.0 | 0.00 | 0.00 | 0.00 | 73 | 1015.4 |
| 20260831072106 | 64 | 213 | 1.0 | 3.0 | 0.00 | 0.00 | 0.00 | 71 | 1015.4 |
| 20260831071605 | 63 | 208 | 2.0 | 3.0 | 0.00 | 0.00 | 0.00 | 72 | 1015.4 |
| 20260831071106 | 62 | 205 | 1.0 | 3.0 | 0.00 | 0.00 | 0.00 | 74 | 1015.3 |
| 20260831070606 | 62 | 209 | 2.0 | 3.0 | 0.00 | 0.00 | 0.00 | 74 | 1015.3 |
| 20260831070106 | 62 | 188 | 2.0 | 3.0 | 0.00 | 0.00 | 0.00 | 76 | 1015.3 |
| 20260831065605 | 63 | 164 | 2.0 | 3.0 | 0.00 | 0.00 | 0.00 | 73 | 1015.3 |
| 20260831065106 | 64 | 137 | 2.0 | 3.0 | 0.00 | 0.00 | 0.00 | 70 | 1015.3 |
| 20260831064606 | 64 | 120 | 0.0 | 2.0 | 0.00 | 0.00 | 0.00 | 70 | 1015.3 |
| 20260831064106 | 64 | 111 | 1.0 | 3.0 | 0.00 | 0.00 | 0.00 | 72 | 1015.3 |
| 20260831063605 | 64 | 102 | 0.0 | 3.0 | 0.00 | 0.00 | 0.00 | 71 | 1015.4 |
| 20260831063106 | 63 | 101 | 0.0 | 2.0 | 0.00 | 0.00 | 0.00 | 65 | 1015.4 |
| 20260831062605 | 63 | 97 | 1.0 | 3.0 | 0.00 | 0.00 | 0.00 | 68 | 1015.4 |
| 20260831062106 | 64 | 38 | 2.0 | 3.0 | 0.00 | 0.00 | 0.00 | 65 | 1015.3 |
| 20260831061106 | 63 | 358 | 0.0 | 1.0 | 0.00 | 0.00 | 0.00 | 69 | 1015.5 |
| 20260831060606 | 63 | 358 | 0.0 | 1.0 | 0.00 | 0.00 | 0.00 | 67 | 1015.4 |
| 20260831060105 | 63 | 358 | 1.0 | 2.0 | 0.00 | 0.00 | 0.00 | 66 | 1015.4 |
| 20260831055606 | 64 | 352 | 1.0 | 3.0 | 0.00 | 0.00 | 0.00 | 69 | 1015.3 |
| 20260831055105 | 63 | 353 | 0.0 | 3.0 | 0.00 | 0.00 | 0.00 | 68 | 1015.4 |
| 20260831054606 | 63 | 355 | 0.0 | 2.0 | 0.00 | 0.00 | 0.00 | 72 | 1015.4 |
| 20260831054106 | 62 | 354 | 0.0 | 2.0 | 0.00 | 0.00 | 0.00 | 73 | 1015.5 |
| 20260831053605 | 61 | 357 | 0.0 | 1.0 | 0.00 | 0.00 | 0.00 | 74 | 1015.5 |
| 20260831053106 | 60 | 350 | 0.0 | 1.0 | 0.00 | 0.00 | 0.00 | 75 | 1015.6 |
| 20260831052606 | 59 | 355 | 0.0 | 1.0 | 0.00 | 0.00 | 0.00 | 76 | 1015.6 |
| 20260831051605 | 57 | 356 | 1.0 | 2.0 | 0.00 | 0.00 | 0.00 | 76 | 1015.5 |
| 20260831050106 | 55 | 0 | 0.0 | 2.0 | 0.00 | 0.00 | 0.00 | 77 | 1015.4 |
| 20260831045106 | 54 | 0 | 0.0 | 1.0 | 0.00 | 0.00 | 0.00 | 83 | 1015.3 |
| 20260831044606 | 54 | 357 | 0.0 | 0.0 | 0.00 | 0.00 | 0.00 | 83 | 1015.3 |
| 20260831044106 | 54 | 0 | 0.0 | 0.0 | 0.00 | 0.00 | 0.00 | 82 | 1015.4 |
| 20260831043106 | 54 | 358 | 0.0 | 0.0 | 0.00 | 0.00 | 0.00 | 83 | 1015.3 |
| 20260831042606 | 54 | 357 | 0.0 | 0.0 | 0.00 | 0.00 | 0.00 | 83 | 1015.3 |
| 20260831042106 | 54 | 0 | 0.0 | 0.0 | 0.00 | 0.00 | 0.00 | 83 | 1015.3 |
| 20260831041606 | 54 | 0 | 0.0 | 2.0 | 0.00 | 0.00 | 0.00 | 83 | 1015.4 |
| 20260831041106 | 54 | 0 | 1.0 | 2.0 | 0.00 | 0.00 | 0.00 | 83 | 1015.4 |
| 20260831040605 | 54 | 0 | 0.0 | 0.0 | 0.00 | 0.00 | 0.00 | 83 | 1015.4 |
| 20260831040106 | 54 | 0 | 1.0 | 1.0 | 0.00 | 0.00 | 0.00 | 83 | 1015.5 |
| 20260831035605 | 54 | 0 | 0.0 | 1.0 | 0.00 | 0.00 | 0.00 | 84 | 1015.5 |
| 20260831035105 | 54 | 0 | 1.0 | 2.0 | 0.00 | 0.00 | 0.00 | 84 | 1015.5 |
| 20260831034605 | 54 | 0 | 1.0 | 3.0 | 0.00 | 0.00 | 0.00 | 82 | 1015.6 |
| 20260831034105 | 54 | 0 | 1.0 | 2.0 | 0.00 | 0.00 | 0.00 | 81 | 1015.8 |
| 20260831032606 | 54 | 0 | 0.0 | 2.0 | 0.00 | 0.00 | 0.00 | 80 | 1015.9 |
| 20260831032105 | 54 | 359 | 1.0 | 2.0 | 0.00 | 0.00 | 0.00 | 80 | 1016.0 |
| 20260831031606 | 54 | 0 | 1.0 | 2.0 | 0.00 | 0.00 | 0.00 | 82 | 1016.0 |
| 20260831030605 | 54 | 0 | 0.0 | 2.0 | 0.00 | 0.00 | 0.00 | 79 | 1016.1 |
| 20260831030106 | 54 | 357 | 1.0 | 2.0 | 0.00 | 0.00 | 0.00 | 77 | 1016.1 |
| 20260831025606 | 54 | 359 | 1.0 | 2.0 | 0.00 | 0.00 | 0.00 | 75 | 1016.0 |
| 20260831024605 | 55 | 0 | 0.0 | 0.0 | 0.00 | 0.00 | 0.00 | 72 | 1016.1 |
| 20260831024106 | 55 | 0 | 0.0 | 0.0 | 0.00 | 0.00 | 0.00 | 72 | 1016.1 |
| 20260831023605 | 55 | 358 | 0.0 | 0.0 | 0.00 | 0.00 | 0.00 | 72 | 1016.0 |
| 20260831023106 | 55 | 0 | 0.0 | 0.0 | 0.00 | 0.00 | 0.00 | 72 | 1016.0 |
| 20260831022106 | 56 | 358 | 0.0 | 0.0 | 0.00 | 0.00 | 0.00 | 70 | 1016.0 |
| 20260831021606 | 56 | 0 | 0.0 | 1.0 | 0.00 | 0.00 | 0.00 | 72 | 1016.0 |
| 20260831021105 | 56 | 0 | 0.0 | 1.0 | 0.00 | 0.00 | 0.00 | 74 | 1016.0 |
| 20260831020606 | 56 | 0 | 1.0 | 2.0 | 0.00 | 0.00 | 0.00 | 76 | 1016.0 |
| 20260831020105 | 56 | 357 | 0.0 | 0.0 | 0.00 | 0.00 | 0.00 | 71 | 1016.0 |
| 20260831015606 | 56 | 356 | 0.0 | 1.0 | 0.00 | 0.00 | 0.00 | 74 | 1016.0 |
| 20260831015105 | 56 | 0 | 1.0 | 2.0 | 0.00 | 0.00 | 0.00 | 76 | 1016.0 |
| 20260831014605 | 56 | 359 | 2.0 | 3.0 | 0.00 | 0.00 | 0.00 | 77 | 1016.0 |
| 20260831014105 | 56 | 359 | 2.0 | 3.0 | 0.00 | 0.00 | 0.00 | 76 | 1016.0 |
| 20260831013605 | 56 | 0 | 2.0 | 2.0 | 0.00 | 0.00 | 0.00 | 76 | 1016.1 |
| 20260831013105 | 56 | 0 | 2.0 | 3.0 | 0.00 | 0.00 | 0.00 | 77 | 1016.2 |
| 20260831012606 | 56 | 359 | 2.0 | 3.0 | 0.00 | 0.00 | 0.00 | 77 | 1016.2 |
| 20260831012105 | 56 | 355 | 2.0 | 3.0 | 0.00 | 0.00 | 0.00 | 77 | 1016.3 |
| 20260831011105 | 56 | 0 | 3.0 | 3.0 | 0.00 | 0.00 | 0.00 | 80 | 1016.3 |
| 20260831010605 | 56 | 0 | 3.0 | 3.0 | 0.00 | 0.00 | 0.00 | 82 | 1016.4 |
| 20260831010105 | 56 | 358 | 4.0 | 5.0 | 0.00 | 0.00 | 0.00 | 83 | 1016.3 |
| 20260831005606 | 56 | 356 | 5.0 | 6.0 | 0.00 | 0.00 | 0.00 | 83 | 1016.3 |
| 20260831004606 | 56 | 32 | 5.0 | 6.0 | 0.00 | 0.00 | 0.00 | 82 | 1016.3 |
| 20260831004105 | 56 | 34 | 5.0 | 6.0 | 0.00 | 0.00 | 0.00 | 81 | 1016.3 |
| 20260831003105 | 57 | 37 | 2.0 | 3.0 | 0.00 | 0.00 | 0.00 | 78 | 1016.5 |
| 20260831002605 | 57 | 37 | 2.0 | 3.0 | 0.00 | 0.00 | 0.00 | 77 | 1016.5 |
| 20260831002105 | 57 | 37 | 2.0 | 3.0 | 0.00 | 0.00 | 0.00 | 77 | 1016.5 |
| 20260831001606 | 57 | 37 | 3.0 | 5.0 | 0.00 | 0.00 | 0.00 | 77 | 1016.6 |
| 20260831001105 | 57 | 37 | 3.0 | 3.0 | 0.00 | 0.00 | 0.00 | 77 | 1016.6 |
| 20260831000605 | 57 | 36 | 3.0 | 5.0 | 0.00 | 0.00 | 0.00 | 78 | 1016.6 |
| 20260831000105 | 57 | 36 | 3.0 | 3.0 | 0.00 | 0.00 | 0.00 | 79 | 1016.7 |
| 20260830235606 | 56 | 35 | 2.0 | 3.0 | 0.00 | 0.00 | 0.00 | 79 | 1016.7 |
| 20260830234105 | 57 | 35 | 4.0 | 5.0 | 0.00 | 0.00 | 0.00 | 77 | 1016.7 |
| 20260830233605 | 57 | 35 | 3.0 | 5.0 | 0.00 | 0.00 | 0.00 | 77 | 1016.8 |
| 20260830233105 | 57 | 33 | 3.0 | 5.0 | 0.00 | 0.00 | 0.00 | 75 | 1016.8 |
| 20260830232605 | 57 | 33 | 3.0 | 6.0 | 0.00 | 0.00 | 0.00 | 72 | 1016.8 |
| 20260830231105 | 57 | 51 | 4.0 | 5.0 | 0.00 | 0.00 | 0.00 | 69 | 1016.9 |
| 20260830230105 | 57 | 53 | 3.0 | 5.0 | 0.00 | 0.00 | 0.00 | 71 | 1017.0 |
| 20260830225606 | 57 | 53 | 3.0 | 5.0 | 0.00 | 0.00 | 0.00 | 71 | 1016.9 |
| 20260830225105 | 58 | 49 | 3.0 | 5.0 | 0.00 | 0.00 | 0.00 | 70 | 1017.0 |
| 20260830224605 | 58 | 48 | 3.0 | 3.0 | 0.00 | 0.00 | 0.00 | 70 | 1017.0 |
| 20260830224107 | 58 | 46 | 3.0 | 5.0 | 0.00 | 0.00 | 0.00 | 70 | 1017.0 |
| 20260830223605 | 58 | 43 | 3.0 | 5.0 | 0.00 | 0.00 | 0.00 | 69 | 1017.0 |
| 20260830222605 | 58 | 334 | 3.0 | 5.0 | 0.00 | 0.00 | 0.00 | 68 | 1017.0 |
| 20260830222105 | 58 | 288 | 3.0 | 3.0 | 0.00 | 0.00 | 0.00 | 67 | 1017.0 |
| 20260830221605 | 58 | 304 | 3.0 | 3.0 | 0.00 | 0.00 | 0.00 | 70 | 1017.0 |
| 20260830221105 | 58 | 296 | 3.0 | 3.0 | 0.00 | 0.00 | 0.00 | 71 | 1017.1 |
| 20260830220606 | 58 | 351 | 3.0 | 5.0 | 0.00 | 0.00 | 0.00 | 70 | 1017.0 |
| 20260830220106 | 58 | 346 | 3.0 | 5.0 | 0.00 | 0.00 | 0.00 | 70 | 1017.1 |
| 20260830215605 | 58 | 303 | 3.0 | 3.0 | 0.00 | 0.00 | 0.00 | 69 | 1017.1 |
| 20260830215105 | 58 | 314 | 2.0 | 3.0 | 0.00 | 0.00 | 0.00 | 69 | 1017.1 |
| 20260830214605 | 57 | 313 | 2.0 | 3.0 | 0.00 | 0.00 | 0.00 | 73 | 1017.0 |
| 20260830214105 | 57 | 324 | 2.0 | 3.0 | 0.00 | 0.00 | 0.00 | 78 | 1017.0 |
| 20260830213605 | 57 | 304 | 2.0 | 3.0 | 0.00 | 0.00 | 0.00 | 78 | 1017.0 |
| 20260830212605 | 57 | 290 | 2.0 | 3.0 | 0.00 | 0.00 | 0.00 | 80 | 1016.9 |
| 20260830211605 | 57 | 332 | 1.0 | 3.0 | 0.00 | 0.00 | 0.00 | 79 | 1017.0 |
| 20260830211105 | 57 | 288 | 2.0 | 3.0 | 0.00 | 0.00 | 0.00 | 80 | 1016.9 |
| 20260830210604 | 57 | 306 | 1.0 | 2.0 | 0.00 | 0.00 | 0.00 | 79 | 1016.9 |
| 20260830210105 | 57 | 348 | 2.0 | 3.0 | 0.00 | 0.00 | 0.00 | 81 | 1016.8 |
| 20260830205105 | 58 | 286 | 3.0 | 3.0 | 0.00 | 0.00 | 0.00 | 83 | 1016.7 |
| 20260830204605 | 58 | 281 | 2.0 | 3.0 | 0.00 | 0.00 | 0.00 | 82 | 1016.7 |
| 20260830204105 | 57 | 283 | 2.0 | 3.0 | 0.00 | 0.00 | 0.00 | 82 | 1016.8 |
| 20260830203605 | 58 | 267 | 2.0 | 3.0 | 0.00 | 0.00 | 0.00 | 83 | 1016.7 |
| 20260830203105 | 57 | 337 | 1.0 | 2.0 | 0.00 | 0.00 | 0.00 | 82 | 1016.7 |
| 20260830202604 | 58 | 312 | 0.0 | 3.0 | 0.00 | 0.00 | 0.00 | 82 | 1016.8 |
| 20260830202105 | 58 | 303 | 2.0 | 3.0 | 0.00 | 0.00 | 0.00 | 82 | 1016.8 |
| 20260830201605 | 58 | 283 | 1.0 | 2.0 | 0.00 | 0.00 | 0.00 | 82 | 1016.7 |
| 20260830201105 | 58 | 325 | 0.0 | 0.0 | 0.00 | 0.00 | 0.00 | 82 | 1016.7 |
| 20260830200105 | 58 | 301 | 3.0 | 3.0 | 0.00 | 0.00 | 0.00 | 83 | 1016.6 |
| 20260830195604 | 58 | 275 | 1.0 | 3.0 | 0.00 | 0.00 | 0.00 | 83 | 1016.7 |
| 20260830195105 | 58 | 271 | 1.0 | 3.0 | 0.00 | 0.00 | 0.00 | 82 | 1016.8 |
| 20260830194605 | 58 | 264 | 2.0 | 3.0 | 0.00 | 0.00 | 0.00 | 82 | 1016.8 |
| 20260830193605 | 58 | 256 | 5.0 | 5.0 | 0.00 | 0.00 | 0.00 | 82 | 1016.6 |
| 20260830193105 | 58 | 287 | 3.0 | 5.0 | 0.00 | 0.00 | 0.00 | 81 | 1016.7 |
| 20260830192604 | 58 | 217 | 3.0 | 3.0 | 0.00 | 0.00 | 0.00 | 81 | 1016.7 |
| 20260830192105 | 58 | 287 | 3.0 | 5.0 | 0.00 | 0.00 | 0.00 | 82 | 1016.7 |
| 20260830191104 | 58 | 197 | 3.0 | 3.0 | 0.00 | 0.00 | 0.00 | 82 | 1016.7 |
| 20260830190605 | 58 | 187 | 2.0 | 3.0 | 0.00 | 0.00 | 0.00 | 80 | 1016.7 |
| 20260830190105 | 58 | 185 | 2.0 | 3.0 | 0.00 | 0.00 | 0.00 | 80 | 1016.7 |
| 20260830185605 | 58 | 185 | 1.0 | 2.0 | 0.00 | 0.00 | 0.00 | 80 | 1016.7 |
| 20260830185105 | 58 | 185 | 2.0 | 3.0 | 0.00 | 0.00 | 0.00 | 79 | 1016.7 |
| 20260830184604 | 58 | 185 | 1.0 | 2.0 | 0.00 | 0.00 | 0.00 | 79 | 1016.7 |
| 20260830184105 | 58 | 185 | 0.0 | 3.0 | 0.00 | 0.00 | 0.00 | 81 | 1016.6 |
| 20260830183107 | 57 | 185 | 0.0 | 1.0 | 0.00 | 0.00 | 0.00 | 80 | 1016.5 |
| 20260830182604 | 57 | 184 | 2.0 | 3.0 | 0.00 | 0.00 | 0.00 | 81 | 1016.3 |
| 20260830182105 | 57 | 182 | 0.0 | 2.0 | 0.00 | 0.00 | 0.00 | 84 | 1016.3 |
| 20260830180604 | 57 | 181 | 2.0 | 3.0 | 0.00 | 0.00 | 0.00 | 84 | 1016.1 |
| 20260830180105 | 57 | 180 | 3.0 | 5.0 | 0.00 | 0.00 | 0.00 | 84 | 1016.1 |
| 20260830175605 | 57 | 173 | 3.0 | 5.0 | 0.00 | 0.00 | 0.00 | 84 | 1016.0 |
| 20260830175105 | 57 | 175 | 4.0 | 5.0 | 0.00 | 0.00 | 0.00 | 84 | 1016.0 |
| 20260830174605 | 57 | 174 | 3.0 | 5.0 | 0.00 | 0.00 | 0.00 | 84 | 1016.0 |
| 20260830174104 | 57 | 198 | 3.0 | 3.0 | 0.00 | 0.00 | 0.00 | 84 | 1016.0 |
| 20260830173604 | 58 | 178 | 3.0 | 5.0 | 0.00 | 0.00 | 0.00 | 84 | 1015.9 |
| 20260830173104 | 58 | 198 | 2.0 | 3.0 | 0.00 | 0.00 | 0.00 | 84 | 1015.9 |
| 20260830172604 | 58 | 191 | 2.0 | 3.0 | 0.00 | 0.00 | 0.00 | 84 | 1015.8 |
| 20260830172105 | 58 | 189 | 3.0 | 3.0 | 0.00 | 0.00 | 0.00 | 84 | 1015.8 |
| 20260830171604 | 58 | 188 | 1.0 | 3.0 | 0.00 | 0.00 | 0.00 | 83 | 1015.9 |
| 20260830171105 | 58 | 190 | 2.0 | 3.0 | 0.00 | 0.00 | 0.00 | 83 | 1015.9 |
| 20260830170104 | 58 | 187 | 2.0 | 5.0 | 0.00 | 0.00 | 0.00 | 83 | 1016.0 |
| 20260830165605 | 58 | 187 | 3.0 | 5.0 | 0.00 | 0.00 | 0.00 | 83 | 1016.0 |
| 20260830165105 | 58 | 183 | 3.0 | 6.0 | 0.00 | 0.00 | 0.00 | 83 | 1016.0 |
| 20260830164605 | 58 | 182 | 3.0 | 5.0 | 0.00 | 0.00 | 0.00 | 83 | 1016.0 |
| 20260830164104 | 58 | 163 | 3.0 | 7.0 | 0.00 | 0.00 | 0.00 | 82 | 1016.1 |
| 20260830163604 | 58 | 164 | 2.0 | 5.0 | 0.00 | 0.00 | 0.00 | 82 | 1016.1 |
| 20260830163105 | 58 | 165 | 1.0 | 3.0 | 0.00 | 0.00 | 0.00 | 82 | 1016.2 |
| 20260830162605 | 58 | 164 | 3.0 | 6.0 | 0.00 | 0.00 | 0.00 | 82 | 1016.1 |
| 20260830162105 | 59 | 165 | 4.0 | 5.0 | 0.00 | 0.00 | 0.00 | 81 | 1016.1 |
| 20260830161605 | 59 | 165 | 3.0 | 5.0 | 0.00 | 0.00 | 0.00 | 82 | 1016.2 |
| 20260830161105 | 59 | 164 | 3.0 | 6.0 | 0.00 | 0.00 | 0.00 | 81 | 1016.3 |
| 20260830160605 | 59 | 155 | 3.0 | 6.0 | 0.00 | 0.00 | 0.00 | 82 | 1016.2 |
| 20260830160105 | 59 | 156 | 5.0 | 7.0 | 0.00 | 0.00 | 0.00 | 80 | 1016.3 |
| 20260830155604 | 59 | 155 | 5.0 | 6.0 | 0.00 | 0.00 | 0.00 | 79 | 1016.3 |
| 20260830155104 | 60 | 155 | 5.0 | 6.0 | 0.00 | 0.00 | 0.00 | 79 | 1016.3 |
| 20260830154605 | 60 | 155 | 5.0 | 6.0 | 0.00 | 0.00 | 0.00 | 79 | 1016.4 |
| 20260830154104 | 60 | 156 | 4.0 | 6.0 | 0.00 | 0.00 | 0.00 | 79 | 1016.4 |
| 20260830153604 | 60 | 160 | 5.0 | 7.0 | 0.00 | 0.00 | 0.00 | 79 | 1016.4 |
| 20260830152605 | 60 | 152 | 4.0 | 6.0 | 0.00 | 0.00 | 0.00 | 79 | 1016.4 |
| 20260830152104 | 60 | 60 | 4.0 | 7.0 | 0.00 | 0.00 | 0.00 | 79 | 1016.4 |
| 20260830151605 | 60 | 165 | 2.0 | 6.0 | 0.00 | 0.00 | 0.00 | 80 | 1016.4 |
| 20260830151104 | 60 | 138 | 3.0 | 9.0 | 0.00 | 0.00 | 0.00 | 78 | 1016.4 |
| 20260830150605 | 60 | 149 | 5.0 | 8.0 | 0.00 | 0.00 | 0.00 | 78 | 1016.5 |
| 20260830150105 | 60 | 149 | 3.0 | 9.0 | 0.00 | 0.00 | 0.00 | 79 | 1016.5 |
| 20260830145605 | 61 | 158 | 5.0 | 8.0 | 0.00 | 0.00 | 0.00 | 78 | 1016.5 |
| 20260830145104 | 61 | 12 | 3.0 | 8.0 | 0.00 | 0.00 | 0.00 | 78 | 1016.5 |
| 20260830144607 | 61 | 134 | 5.0 | 7.0 | 0.00 | 0.00 | 0.00 | 79 | 1016.5 |
| 20260830144104 | 61 | 149 | 5.0 | 7.0 | 0.00 | 0.00 | 0.00 | 77 | 1016.4 |
| 20260830142605 | 61 | 154 | 5.0 | 8.0 | 0.00 | 0.00 | 0.00 | 77 | 1016.5 |
| 20260830142104 | 61 | 138 | 6.0 | 9.0 | 0.00 | 0.00 | 0.00 | 75 | 1016.5 |
| 20260830141604 | 62 | 131 | 6.0 | 9.0 | 0.00 | 0.00 | 0.00 | 78 | 1016.6 |
| 20260830141104 | 62 | 151 | 3.0 | 6.0 | 0.00 | 0.00 | 0.00 | 76 | 1016.6 |
| 20260830140604 | 62 | 137 | 5.0 | 10.0 | 0.00 | 0.00 | 0.00 | 76 | 1016.7 |
| 20260830135104 | 62 | 150 | 5.0 | 8.0 | 0.00 | 0.00 | 0.00 | 77 | 1016.6 |
| 20260830134604 | 62 | 149 | 4.0 | 8.0 | 0.00 | 0.00 | 0.00 | 76 | 1016.7 |
| 20260830134104 | 61 | 158 | 5.0 | 8.0 | 0.00 | 0.00 | 0.00 | 77 | 1016.6 |
| 20260830133104 | 62 | 154 | 5.0 | 8.0 | 0.00 | 0.00 | 0.00 | 77 | 1016.6 |
| 20260830132604 | 63 | 148 | 4.0 | 8.0 | 0.00 | 0.00 | 0.00 | 75 | 1016.6 |
| 20260830132104 | 63 | 171 | 3.0 | 8.0 | 0.00 | 0.00 | 0.00 | 76 | 1016.6 |
| 20260830131604 | 63 | 141 | 3.0 | 8.0 | 0.00 | 0.00 | 0.00 | 79 | 1016.7 |
| 20260830131104 | 62 | 127 | 3.0 | 10.0 | 0.00 | 0.00 | 0.00 | 79 | 1016.7 |
| 20260830130104 | 62 | 129 | 5.0 | 9.0 | 0.00 | 0.00 | 0.00 | 79 | 1016.6 |
| 20260830125104 | 63 | 130 | 5.0 | 9.0 | 0.00 | 0.00 | 0.00 | 80 | 1016.6 |
| 20260830124104 | 64 | 145 | 3.0 | 9.0 | 0.00 | 0.00 | 0.00 | 80 | 1016.6 |
| 20260830123604 | 64 | 176 | 3.0 | 7.0 | 0.00 | 0.00 | 0.00 | 78 | 1016.6 |